EW3364 Weather Reports


time (UTC)temp
C
wind
direction
speed
KPH
gust
KPH
rain 1hr
cm
rain 24hr
cm
rain mn
cm
humidity
%
barometer
mb
20260510190040 26 171 6.4 20.9 0.00 0.76 0.03 81 1017.1
20260510184531 26 165 9.7 24.1 0.00 0.76 0.03 81 1017.2
20260510183032 -67 182 8.0 20.9 0.00 0.76 0.03 1017.5
20260510181538 25 346 9.7 22.5 0.00 0.76 0.03 84 1017.6
20260510180028 25 163 6.4 27.4 0.00 1.70 0.03 1017.8
20260510174512 25 236 4.8 24.1 0.00 1.70 0.03 85 1018.1
20260510173014 -67 185 8.0 16.1 0.00 1.70 0.03 1017.9
20260510171504 -67 140 8.0 20.9 0.00 1.70 0.03 1018.2
20260510170104 -67 146 8.0 20.9 0.00 1.93 0.03 1018.3
20260510164609 -67 154 8.0 19.3 0.00 1.93 0.03 1018.2
20260510163050 -67 204 8.0 20.9 0.00 1.93 0.03 1018.1
20260510161546 -67 188 4.8 17.7 0.00 1.93 0.03 1018.1
20260510160043 -67 163 6.4 14.5 0.00 2.06 0.03 1018.0
20260510154538 -67 121 8.0 14.5 0.00 2.06 0.03 1018.2
20260510153043 -67 138 6.4 16.1 0.00 2.06 0.03 1018.0
20260510151533 -67 117 11.3 19.3 0.00 2.06 0.03 1018.0
20260510150024 -67 105 11.3 16.1 0.00 2.16 0.03 1017.9
20260510144533 -67 110 9.7 17.7 0.00 2.16 0.03 1017.9
20260510143015 -67 132 12.9 19.3 0.00 2.16 0.03 1017.8
20260510141510 -67 98 11.3 17.7 0.00 2.16 0.03 1017.8
20260510140008 -67 156 3.2 12.9 0.00 2.51 0.03 1017.8
20260510134501 -67 157 8.0 14.5 0.00 2.51 0.03 1017.8
20260510133100 -67 123 6.4 16.1 0.00 2.51 0.03 1017.7
20260510131553 -67 128 6.4 14.5 0.00 2.51 0.03 1017.4
20260510130049 -67 123 9.7 16.1 0.00 2.51 0.03 1017.1
20260510124548 -67 135 8.0 14.5 0.00 2.51 0.03 1016.9
20260510123040 -67 134 8.0 12.9 0.00 2.51 0.03 1016.6
20260510121536 -67 173 4.8 9.7 0.00 2.51 0.03 1016.4
20260510120035 -67 157 4.8 11.3 0.00 2.51 0.03 1016.3
20260510114529 -67 151 3.2 11.3 0.00 2.51 0.03 1016.2
20260510113022 -67 178 3.2 9.7 0.00 2.51 0.03 1016.0
20260510111518 -67 176 6.4 12.9 0.00 2.51 0.03 1015.6
20260510110017 -67 140 6.4 11.3 0.03 2.51 0.03 1015.4
20260510104509 -67 169 4.8 9.7 0.03 2.51 0.03 1015.3
20260510103006 -67 176 1.6 11.3 0.03 2.51 0.03 1014.9
20260510101603 -67 180 4.8 9.7 0.03 2.51 0.03 1014.8
20260510100059 -67 189 1.6 4.8 0.00 2.49 0.00 1014.7
20260510094552 -67 182 0.0 4.8 0.00 2.49 0.00 1014.6
20260510093047 -67 145 3.2 8.0 0.00 2.49 0.00 1014.5
20260510091543 -67 135 3.2 8.0 0.00 2.49 0.00 1014.3
20260510090041 -67 101 1.6 8.0 0.00 2.49 0.00 1014.4
20260510084541 -67 96 1.6 11.3 0.00 2.49 0.00 1014.3
20260510083037 -67 30 4.8 9.7 0.00 2.49 0.00 1014.1
20260510081525 -67 61 0.0 4.8 0.00 2.49 0.00 1014.0
20260510080021 -67 58 1.6 4.8 0.00 2.49 0.00 1013.9
20260510074517 -67 88 0.0 1.6 0.00 2.49 0.00 1013.7
20260510073012 -67 74 0.0 6.4 0.00 2.49 0.00 1013.6
20260510071508 -67 105 1.6 8.0 0.00 2.49 0.00 1013.6
20260510070004 -67 69 1.6 6.4 0.00 2.49 0.00 1013.6
20260510064612 -67 82 3.2 4.8 0.00 2.49 0.00 1013.6
20260510063102 -67 77 1.6 8.0 0.00 2.49 0.00 1013.6
20260510061551 -67 189 1.6 3.2 0.00 2.49 0.00 1013.6
20260510060055 -67 195 0.0 1.6 0.00 2.49 0.00 1013.4
20260510054541 -67 195 0.0 0.0 0.00 2.49 0.00 1013.5
20260510053041 -67 195 0.0 3.2 0.00 2.49 0.00 1013.5
20260510051540 -67 184 4.8 9.7 0.00 2.49 0.00 1013.3
20260510050029 -67 167 1.6 8.0 0.00 2.49 2.49 1013.7
20260510044529 -67 212 3.2 9.7 0.00 2.49 2.49 1013.7
20260510043024 -67 217 3.2 12.9 0.00 2.49 2.49 1013.9
20260510041516 -67 202 6.4 11.3 0.00 2.49 2.49 1013.9
20260510040012 -67 232 3.2 9.7 0.00 2.49 2.49 1014.4
20260510034507 -67 246 3.2 12.9 0.00 2.49 2.49 1014.6
20260510033004 -67 244 1.6 8.0 0.00 2.49 2.49 1014.9
20260510031601 -67 233 4.8 8.0 0.00 2.49 2.49 1014.8
20260510030057 -67 237 0.0 6.4 0.00 2.49 2.49 1014.4
20260510024556 -67 231 1.6 12.9 0.00 2.49 2.49 1014.6
20260510023047 -67 238 1.6 12.9 0.00 2.49 2.49 1014.2
20260510021541 -67 234 3.2 11.3 0.03 2.49 2.49 1013.9
20260510020040 -67 194 8.0 16.1 0.03 2.49 2.49 1013.6
20260510014531 -67 188 8.0 20.9 0.05 2.49 2.49 1013.7
20260510013029 -67 247 8.0 19.3 0.05 2.49 2.49 1013.6
20260510011534 -67 179 4.8 12.9 0.03 2.46 2.46 1013.6
20260510010024 -67 197 3.2 12.9 0.00 2.44 2.44 1013.6
20260510004514 -67 201 6.4 16.1 0.03 2.44 2.44 1013.9
20260510003010 -67 195 3.2 12.9 0.05 2.44 2.44 1013.5
20260510001507 -67 196 1.6 9.7 0.05 2.44 2.44 1013.6
20260510000002 -67 222 0.0 4.8 0.08 2.51 2.44 1013.5
20260509234605 -67 223 1.6 4.8 0.08 2.49 2.41 1014.0
20260509233052 -67 213 0.0 3.2 0.05 2.46 2.39 1013.7
20260509231549 -67 214 0.0 11.3 0.08 2.46 2.39 1013.4
20260509230045 -67 211 4.8 12.9 0.05 2.84 2.36 1013.3
20260509224539 -67 228 6.4 14.5 0.03 2.82 2.34 1013.3
20260509223034 -67 236 6.4 14.5 0.03 2.82 2.34 1013.2
20260509221551 -67 211 4.8 12.9 0.03 2.79 2.31 1012.9
20260509220028 -67 223 4.8 14.5 0.03 5.82 2.31 1012.3
20260509214521 -67 181 4.8 11.3 0.03 5.82 2.31 1012.5
20260509213017 -67 229 6.4 27.4 0.05 5.82 2.31 1012.6
20260509211514 -67 269 4.8 19.3 0.05 5.77 2.29 1012.9
20260509210008 -67 185 8.0 19.3 0.10 6.22 2.29 1012.6
20260509204504 -67 142 4.8 20.9 0.15 6.22 2.29 1012.5
20260509203101 -67 190 1.6 6.4 0.15 6.20 2.26 1012.8
20260509201555 -67 173 0.0 8.0 0.15 6.17 2.24 1013.3
20260509200058 -67 205 0.0 6.4 0.10 6.12 2.18 1013.5
20260509194546 -67 177 0.0 3.2 0.15 6.07 2.13 1013.6
20260509193051 -67 167 0.0 4.8 0.23 6.05 2.11 1013.9
20260509191552 -67 205 1.6 14.5 0.23 6.02 2.08 1013.9